Погода в Кириллове

Россия / Пензенская область     53°45′20″N   42°39′55″E
темп.,
°C
ветер,
м/с
пор.,
м/с
влажн.,
%
обл.,
%
осадки,
мм/ч
давл.,
гПа
погр.,
м
19 января, ср
ср1900:00−4юз0198100 0.6 100916
03:00−7с6109699 1.7 1011309
06:00−10с499693 0.3 1013192
09:00−9с4895100 0.7 1015266
12:00−9с3592100 0.2 1016234
15:00−10с249451 0.2 101789
18:00−17ссз1110079 0.0 10189
21:00−19юв1110094 0.0 10199
20 января, чт
чт2000:00−20ююз2210096 0.0 10199
03:00−18ю3410096 0.0 101943
06:00−18ююз3610098 0.0 101879
09:00−16ю499894 0.1 1018146
12:00−12ю5119799 0.0 1018271
15:00−12ю5129576 0.1 1017287
18:00−13ю5139437 0.0 1017241
21:00−14ю6159444 0.0 1017273
21 января, пт
пт2100:00−14ю6169322 0.0 1017297
03:00−14ю6169397 0.0 1017311
06:00−14ю61692100 0.0 1016293
09:00−12ююв71790100 0.0 1015345
12:00−9ююв81886100 0.0 1014495
15:00−8ююв91983100 0.0 1013590
18:00−7ююв91892100 0.2 1011649
21:00−7ююв91794100 1.6 1011679
22 января, сб
сб2200:00−6ююв71495100 2.1 1011561
03:00−6ююв5109399 2.4 1013308
06:00−9ююв389797 0.1 1014124
09:00−8ююв499692 0.1 1016202
12:00−4ююв4691100 0.0 1017403
15:00−4вюв3594100 0.0 1017321
18:00−5в2497100 0.4 1018101
21:00−5св1197100 1.1 101927
23 января, вс
вс2300:00−6з1197100 0.4 102015
03:00−9зюз129894 0.8 102311
06:00−14зюз2210081 0.1 102510
09:00−18ююз22100100 0.1 102811
12:00−10ю229799 0.1 1029117
15:00−10юв1197100 0.1 103114
18:00−11в2296100 0.0 103217
21:00−8всв2395100 0.0 103362